Home   Weather   Chatham-Kent   Past weeks
Flag for Canada

Past Weather in Chatham-Kent, Ontario, Canada — Yesterday and Last 2 Weeks

Now
71 °F

Mild.


Feels Like: 69 °F
Forecast: 71 / 66 °F
Wind: 5 mph from South

Location: Erieau

Current Time: Jun 24, 2019 at 1:45:54 pm

Latest Report: Jun 24, 2019 at 1:00 pm


Visibility: N/A

Pressure: 29.72 "Hg

Humidity: 86%

Dew Point: 66 °F

Location of Chatham-KentLocation

Past Weather in Chatham-Kent — Graph

°F

Chatham-Kent Temperature Yesterday

Maximum temperature yesterday: 71 °F (at 4:00 pm)
Minimum temperature yesterday: 59 °F (at 5:00 am)
Average temperature yesterday: 65 °F

High & Low Weather Summary for the Past Weeks

 TemperatureHumidityPressure
High73 °F (Jun 19, 8:00 pm)100% (Jun 15, 5:00 pm)30.20 "Hg (Jun 15, 5:00 pm)
Low53 °F (Jun 13, 11:00 pm)44% (Jun 22, 9:00 pm)29.57 "Hg (Jun 20, 2:00 pm)
Average63 °F79%29.91 "Hg
* Reported Jun 9 12:00 pm — Jun 24 12:00 pm, Chatham-Kent. Weather by CustomWeather, © 2019

Note: Actual official high and low records may vary slightly from our data, if they occured in-between our weather recording intervals... More about our weather records

Advertising

Chatham-Kent Weather History for the Previous 24 Hours

Scroll right to see more
 ConditionsComfort  
Time TempWeatherWind HumidityBarometerVisibility
12:00 pm
Mon, Jun 24
69 °FMild.6 mph87%29.74 "HgN/A
11:00 am68 °FMild.7 mph89%29.74 "HgN/A
10:00 am67 °FMild.2 mph89%29.73 "HgN/A
9:00 am67 °FMild.10 mph89%29.75 "HgN/A
8:00 am67 °FMild.12 mph87%29.74 "HgN/A
7:00 am66 °FMild.9 mph80%29.74 "HgN/A
6:00 am68 °FMild.12 mph74%29.76 "HgN/A
5:00 am67 °FMild.7 mph80%29.76 "HgN/A
4:00 am66 °FMild.6 mph85%29.78 "HgN/A
3:00 am66 °FMild.8 mph85%29.79 "HgN/A
2:00 am66 °FMild.6 mph81%29.82 "HgN/A
1:00 am66 °FMild.8 mph73%29.84 "HgN/A
12:00 am67 °FMild.9 mph69%29.85 "HgN/A
11:00 pm
Sun, Jun 23
66 °FMild.13 mph76%29.86 "HgN/A
10:00 pm67 °FMild.13 mph76%29.88 "HgN/A
9:00 pm67 °FMild.12 mph77%29.90 "HgN/A
8:00 pm69 °FMild.9 mph67%29.92 "HgN/A
7:00 pm69 °FMild.8 mph65%29.93 "HgN/A
6:00 pm69 °FMild.8 mph66%29.94 "HgN/A
5:00 pm70 °FMild.5 mph63%29.97 "HgN/A
4:00 pm71 °FMild.5 mph64%29.99 "HgN/A
3:00 pm70 °FMild.3 mph67%30.01 "HgN/A
2:00 pm68 °FMild.3 mph74%30.02 "HgN/A
1:00 pm66 °FMild.3 mph80%30.05 "HgN/A
Weather by CustomWeather, © 2019

See weather overview